Location: Rounton
(54.4000°N, 1.3500°W)
Time: 14:20:03
(UTC+00:00)

Transit 2A Rocket - Pass Details

Date: 06 December 2021
Orbit: 584 x 918 km, 66.7° (Epoch: 21 January)

Event Time Altitude Azimuth Distance (km) Brightness Sun altitude
Rises 08:20:42 0° 228° (SW) 3,390 8.3 0.3°
Reaches altitude 10° 08:23:06 10° 230° (SW) 2,498 7.6 0.5°
Maximum altitude 08:28:57 73° 316° (NW) 942 5.4 1.2°
Drops below altitude 10° 08:35:07 10° 41° (NE) 2,621 7.8 1.8°
Sets 08:37:41 0° 43° (NE) 3,567 8.4 2.1°
